User: anonymous   Login
Location: Unspecified
(0.0000°N, 0.0000°E)
Time: 12:22:55
(UTC+00:00)
Language:

AO-85 - Orbit

View from above orbital plane
View from above orbital plane
View from above satellite
View from above satellite

Ground track
Ground track

The orbit data is extracted from the following two-line orbital elements,

1 40967U 15058D   18018.22539907  .00000223  00000-0  43141-4 0 02122
2 40967 064.7773 286.4599 0190770 001.5645 358.6014 14.75622874031524
Epoch (UTC): 18 January 2018 05:24:34
Eccentricity: 0.0190770
inclination: 64.7773°
perigee height: 509 km
apogee height: 777 km
right ascension of ascending node: 286.4599°
argument of perigee: 1.5645°
revolutions per day: 14.75622874
mean anomaly at epoch: 358.6014°
orbit number at epoch: 3152

The dashed part of the orbit path shows where the satellite is in the earth's shadow,  

DLR